TimeCST,TemperatureF,Dew PointF,Humidity,Sea Level PressureIn,VisibilityMPH,Wind Direction,Wind SpeedMPH,Gust SpeedMPH,PrecipitationIn,Events,Conditions,WindDirDegrees,DateUTC
12:51 AM,16.0,10.0,77,30.17,10.0,ESE,3.5,-,N/A,,Partly Cloudy,110,2012-01-14 06:51:00
1:51 AM,15.1,10.0,80,30.16,10.0,SE,6.9,-,N/A,,Mostly Cloudy,130,2012-01-14 07:51:00
2:51 AM,18.0,12.9,81,30.14,10.0,East,3.5,-,N/A,,Mostly Cloudy,100,2012-01-14 08:51:00
3:51 AM,21.0,14.0,74,30.12,10.0,SE,4.6,-,N/A,,Mostly Cloudy,140,2012-01-14 09:51:00
4:51 AM,21.9,12.0,66,30.11,10.0,ESE,6.9,-,N/A,,Overcast,120,2012-01-14 10:51:00
5:51 AM,21.0,12.9,71,30.09,10.0,ESE,8.1,-,N/A,,Mostly Cloudy,110,2012-01-14 11:51:00
6:51 AM,23.0,14.0,68,30.06,10.0,East,10.4,-,N/A,,Mostly Cloudy,100,2012-01-14 12:51:00
7:51 AM,24.1,12.9,62,30.04,10.0,ESE,11.5,-,N/A,,Mostly Cloudy,110,2012-01-14 13:51:00
8:51 AM,26.1,14.0,60,30.06,10.0,ESE,8.1,-,N/A,,Mostly Cloudy,110,2012-01-14 14:51:00
9:51 AM,28.0,15.1,58,30.06,10.0,ESE,10.4,-,N/A,,Scattered Clouds,110,2012-01-14 15:51:00
10:51 AM,30.9,16.0,54,30.05,10.0,ESE,11.5,-,N/A,,Partly Cloudy,110,2012-01-14 16:51:00
11:51 AM,34.0,16.0,48,30.06,10.0,East,3.5,-,N/A,,Partly Cloudy,80,2012-01-14 17:51:00
12:51 PM,35.1,18.0,50,30.08,10.0,NNE,8.1,-,N/A,,Scattered Clouds,20,2012-01-14 18:51:00
1:51 PM,34.0,18.0,52,30.12,10.0,NNW,12.7,-,N/A,,Mostly Cloudy,340,2012-01-14 19:51:00
2:51 PM,33.8,17.6,52,30.12,10.0,NW,11.5,-,N/A,,Mostly Cloudy,320,2012-01-14 20:51:00
3:51 PM,32.0,21.0,64,30.20,9.0,NNW,6.9,-,N/A,,Mostly Cloudy,340,2012-01-14 21:51:00
4:51 PM,32.0,19.9,61,30.24,10.0,NW,8.1,-,N/A,,Mostly Cloudy,310,2012-01-14 22:51:00
5:51 PM,30.9,21.9,69,30.28,10.0,WNW,4.6,-,N/A,,Mostly Cloudy,300,2012-01-14 23:51:00
6:51 PM,28.9,21.9,75,30.30,10.0,NW,4.6,-,N/A,,Mostly Cloudy,310,2012-01-15 00:51:00
7:51 PM,28.0,21.9,78,30.31,10.0,NNW,3.5,-,N/A,,Partly Cloudy,330,2012-01-15 01:51:00
8:51 PM,26.1,19.9,78,30.32,10.0,Calm,Calm,-,N/A,,Clear,0,2012-01-15 02:51:00
9:51 PM,26.1,21.0,81,30.33,10.0,Calm,Calm,-,N/A,,Clear,0,2012-01-15 03:51:00
10:51 PM,25.0,19.9,81,30.33,10.0,Calm,Calm,-,N/A,,Clear,0,2012-01-15 04:51:00
11:51 PM,21.9,18.0,85,30.33,10.0,Calm,Calm,-,N/A,,Clear,0,2012-01-15 05:51:00